EW9755 Weather Reports


time (UTC)temp
C
wind
direction
speed
KPH
gust
KPH
rain 1hr
cm
rain 24hr
cm
rain mn
cm
humidity
%
barometer
mb
20260510190540 26 75 17.7 29.0 0.00 0.00 0.00 86 1013.7
20260510185900 26 87 19.3 30.6 0.00 0.00 0.00 88 1013.7
20260510185220 26 89 22.5 32.2 0.00 0.00 0.00 88 1013.7
20260510184542 26 96 25.7 30.6 0.00 0.00 0.00 85 1013.7
20260510183900 26 79 17.7 27.4 0.00 0.00 0.00 87 1013.7
20260510183433 26 66 19.3 29.0 0.00 0.00 0.00 87 1013.7
20260510182540 26 70 17.7 25.7 0.00 0.00 0.00 89 1013.7
20260510181859 26 77 17.7 27.4 0.00 0.00 0.00 88 1014.1
20260510181219 26 63 17.7 24.1 0.00 0.00 0.00 88 1014.1
20260510180540 26 66 19.3 27.4 0.00 0.00 0.00 88 1014.1
20260510175859 26 66 19.3 27.4 0.00 0.00 0.00 86 1014.1
20260510175220 26 69 16.1 24.1 0.00 0.00 0.00 88 1014.4
20260510174539 26 77 16.1 24.1 0.00 0.00 0.00 87 1014.4
20260510173859 26 78 16.1 25.7 0.00 0.00 0.00 87 1014.4
20260510173429 26 59 20.9 25.7 0.00 0.00 0.00 87 1014.4
20260510172749 26 73 16.1 25.7 0.00 0.00 0.00 87 1014.4
20260510171859 26 65 19.3 25.7 0.00 0.00 0.00 89 1014.4
20260510171219 26 67 19.3 24.1 0.00 0.00 0.00 89 1014.8
20260510170751 26 75 17.7 25.7 0.00 0.00 0.00 87 1014.4
20260510165901 26 68 16.1 24.1 0.00 0.00 0.00 86 1014.4
20260510165219 26 63 19.3 24.1 0.00 0.00 0.00 88 1014.8
20260510164539 26 74 17.7 24.1 0.00 0.00 0.00 86 1014.8
20260510163859 26 69 16.1 24.1 0.00 0.00 0.00 87 1014.8
20260510163429 26 64 17.7 24.1 0.00 0.00 0.00 88 1014.8
20260510162539 26 58 17.7 24.1 0.00 0.00 0.00 87 1014.8
20260510161901 26 62 16.1 25.7 0.00 0.00 0.00 87 1014.8
20260510161219 26 48 20.9 24.1 0.00 0.00 0.00 85 1014.4
20260510160752 26 68 16.1 24.1 0.00 0.00 0.00 81 1014.4
20260510155859 26 52 20.9 24.1 0.00 0.00 0.00 82 1014.4
20260510155219 26 57 14.5 20.9 0.00 0.00 0.00 84 1014.4
20260510154748 26 55 16.1 22.5 0.00 0.00 0.00 87 1014.4
20260510153859 26 62 17.7 24.1 0.00 0.00 0.00 87 1014.4
20260510153219 26 60 17.7 25.7 0.00 0.00 0.00 86 1014.4
20260510152750 26 47 20.9 25.7 0.00 0.00 0.00 88 1014.8
20260510151859 26 57 17.7 25.7 0.00 0.00 0.00 90 1014.8
20260510151432 25 55 20.9 25.7 0.00 0.00 0.00 88 1014.8
20260510150539 25 50 20.9 25.7 0.00 0.00 0.00 89 1014.8
20260510145900 26 48 17.7 25.7 0.00 0.00 0.00 88 1014.8
20260510145434 25 45 16.1 25.7 0.00 0.00 0.00 91 1014.8
20260510144749 25 45 17.7 22.5 0.00 0.00 0.00 90 1014.8
20260510143900 25 53 14.5 20.9 0.00 0.00 0.00 91 1014.8
20260510143220 25 44 14.5 19.3 0.00 0.00 0.00 92 1014.4
20260510142751 25 52 12.9 22.5 0.00 0.00 0.00 92 1014.4
20260510141900 25 54 14.5 20.9 0.00 0.00 0.00 92 1014.4
20260510141220 25 55 12.9 19.3 0.00 0.00 0.00 92 1014.1
20260510140540 25 53 12.9 17.7 0.00 0.00 0.00 93 1014.1
20260510135900 25 69 8.0 17.7 0.00 0.00 0.00 93 1014.1
20260510135220 25 99 6.4 19.3 0.00 0.00 0.00 93 1013.7
20260510134750 25 109 14.5 24.1 0.00 0.00 0.00 93 1013.7
20260510133900 25 122 19.3 20.9 0.00 0.00 0.00 95 1013.4
20260510133220 25 123 16.1 17.7 0.00 0.00 0.00 95 1013.4
20260510132541 25 124 12.9 17.7 0.00 0.00 0.00 96 1013.1
20260510131900 24 127 12.9 22.5 0.00 0.00 0.00 96 1013.1
20260510131433 24 127 16.1 22.5 0.00 0.00 0.00 97 1013.1
20260510130540 24 130 9.7 17.7 0.00 0.00 0.00 97 1012.7
20260510125900 24 125 12.9 17.7 0.00 0.00 0.00 98 1012.7
20260510125220 24 127 14.5 17.7 0.00 0.00 0.00 98 1012.7
20260510124540 24 129 9.7 19.3 0.00 0.00 0.00 98 1012.7
20260510123900 24 124 8.0 14.5 0.00 0.00 0.00 98 1012.4
20260510123432 24 130 9.7 16.1 0.00 0.00 0.00 98 1012.4
20260510122541 24 125 12.9 16.1 0.00 0.00 0.00 98 1012.4
20260510122113 24 123 12.9 16.1 0.00 0.00 0.00 98 1012.0
20260510121220 24 123 11.3 14.5 0.00 0.00 0.00 98 1012.0
20260510120540 24 127 9.7 14.5 0.00 0.00 0.00 98 1012.0
20260510115900 24 133 11.3 14.5 0.00 0.00 0.00 98 1012.0
20260510115430 24 139 9.7 16.1 0.00 0.00 0.00 99 1011.7
20260510114540 24 138 9.7 16.1 0.00 0.00 0.00 98 1011.7
20260510113901 24 136 12.9 19.3 0.00 0.00 0.00 98 1011.7
20260510113220 24 138 14.5 20.9 0.00 0.00 0.00 98 1011.7
20260510112540 24 140 14.5 22.5 0.00 0.00 0.00 98 1011.4
20260510112114 24 135 14.5 24.1 0.00 0.00 0.00 98 1011.4
20260510111220 24 137 17.7 24.1 0.00 0.00 0.00 98 1011.4
20260510110540 24 136 16.1 24.1 0.00 0.00 0.00 98 1011.0
20260510105900 24 136 17.7 27.4 0.00 0.00 0.00 98 1011.0
20260510105220 24 135 19.3 27.4 0.00 0.00 0.00 98 1011.0
20260510104540 24 136 22.5 27.4 0.00 0.00 0.00 98 1011.0
20260510103900 24 133 19.3 29.0 0.00 0.00 0.00 98 1011.0
20260510103220 24 133 20.9 29.0 0.00 0.00 0.00 98 1011.0
20260510102540 24 130 20.9 30.6 0.00 0.00 0.00 97 1011.0
20260510102109 24 132 20.9 30.6 0.00 0.00 0.00 97 1011.0
20260510101430 24 131 22.5 29.0 0.00 0.00 0.00 97 1011.0
20260510100540 24 130 17.7 27.4 0.00 0.00 0.00 97 1011.0
20260510100111 24 127 19.3 27.4 0.00 0.00 0.00 97 1011.0
20260510095220 24 128 19.3 27.4 0.00 0.00 0.00 97 1011.0
20260510094542 24 123 20.9 29.0 0.00 0.00 0.00 96 1011.0
20260510093900 24 120 22.5 30.6 0.00 0.00 0.00 96 1011.0
20260510093220 24 122 24.1 30.6 0.00 0.00 0.00 96 1011.0
20260510092540 24 120 22.5 30.6 0.00 0.00 0.00 96 1011.0
20260510091900 24 115 24.1 33.8 0.00 0.00 0.00 96 1011.0
20260510091220 24 109 29.0 33.8 0.00 0.00 0.00 95 1011.0
20260510090541 24 117 17.7 30.6 0.00 0.00 0.00 96 1011.0
20260510090112 24 116 22.5 32.2 0.00 0.00 0.00 96 1011.0
20260510085222 24 108 24.1 32.2 0.00 0.00 0.00 95 1011.0
20260510084540 24 112 25.7 35.4 0.00 0.00 0.00 96 1011.0
20260510083900 24 110 25.7 32.2 0.00 0.00 0.00 96 1011.0
20260510083220 24 118 22.5 32.2 0.00 0.00 0.00 96 1011.0
20260510082540 24 121 22.5 32.2 0.00 0.00 0.00 96 1011.0
20260510081900 24 120 24.1 35.4 0.00 0.00 0.00 95 1011.0
20260510081431 24 120 24.1 35.4 0.00 0.00 0.00 95 1011.0
20260510080540 24 116 25.7 37.0 0.00 0.00 0.00 95 1011.0
20260510075900 24 109 27.4 37.0 0.00 0.00 0.00 95 1011.0
20260510075220 24 110 29.0 35.4 0.00 0.00 0.00 95 1011.0
20260510074540 24 116 25.7 40.2 0.00 0.00 0.00 95 1010.7
20260510073901 24 109 32.2 40.2 0.00 0.00 0.00 94 1010.7
20260510073220 24 112 27.4 35.4 0.00 0.00 0.00 94 1010.7
20260510072540 24 116 27.4 45.1 0.00 0.00 0.00 94 1011.0
20260510071900 25 110 33.8 46.7 0.00 0.00 0.00 93 1010.7
20260510071220 25 112 33.8 40.2 0.00 0.00 0.00 93 1011.0
20260510070752 25 109 30.6 41.8 0.00 0.00 0.00 92 1011.0
20260510065900 25 110 24.1 33.8 0.00 0.00 0.00 93 1011.0
20260510065220 25 98 22.5 35.4 0.00 0.00 0.00 93 1011.0
20260510064540 25 104 22.5 37.0 0.00 0.00 0.00 91 1011.4
20260510063900 25 106 20.9 32.2 0.00 0.00 0.00 92 1011.0
20260510063220 24 96 24.1 32.2 0.00 0.00 0.00 92 1011.4
20260510062540 24 84 20.9 32.2 0.00 0.00 0.00 91 1011.7
20260510062112 24 85 19.3 29.0 0.00 0.00 0.00 90 1011.7
20260510061221 24 88 19.3 29.0 0.00 0.00 0.00 90 1012.0
20260510060540 25 87 19.3 29.0 0.00 0.00 0.00 90 1012.0
20260510055900 25 74 17.7 32.2 0.00 0.00 0.00 89 1012.0
20260510055220 25 84 19.3 32.2 0.00 0.00 0.00 90 1012.0
20260510054540 25 81 14.5 22.5 0.00 0.00 0.00 90 1012.0
20260510053900 25 78 12.9 25.7 0.00 0.00 0.00 90 1012.0
20260510053220 25 80 16.1 29.0 0.00 0.00 0.00 90 1011.7
20260510052752 25 81 17.7 29.0 0.00 0.00 0.00 90 1011.7
20260510051900 25 75 16.1 27.4 0.00 0.00 0.00 90 1011.7
20260510051220 25 86 16.1 27.4 0.00 0.00 0.00 90 1011.7
20260510050542 25 91 20.9 32.2 0.00 0.00 0.00 90 1011.7
20260510045900 25 94 22.5 33.8 0.00 0.00 0.00 90 1011.7
20260510045220 25 94 20.9 33.8 0.00 0.00 0.00 90 1011.7
20260510044751 25 87 19.3 25.7 0.00 0.00 0.00 89 1011.7
20260510043900 25 83 12.9 20.9 0.00 0.00 0.00 88 1012.0
20260510043221 25 63 12.9 22.5 0.00 0.00 0.00 87 1012.0
20260510042540 25 74 11.3 22.5 0.00 0.00 0.00 86 1012.0
20260510041900 25 64 14.5 22.5 0.00 0.00 0.00 85 1012.0
20260510041220 25 69 14.5 20.9 0.00 0.00 0.00 84 1012.0
20260510040541 25 59 17.7 24.1 0.00 0.00 0.00 83 1012.0
20260510035900 25 75 14.5 24.1 0.00 0.00 0.00 82 1012.0
20260510035220 25 59 17.7 25.7 0.00 0.00 0.00 82 1012.0
20260510034540 25 58 17.7 29.0 0.00 0.00 0.00 82 1012.0
20260510033900 25 82 16.1 29.0 0.00 0.00 0.00 82 1011.7
20260510033221 25 76 14.5 24.1 0.00 0.00 0.00 82 1011.7
20260510032540 25 78 14.5 22.5 0.00 0.00 0.00 82 1011.7
20260510031900 25 85 14.5 22.5 0.00 0.00 0.00 84 1011.7
20260510031220 25 66 14.5 20.9 0.00 0.00 0.00 82 1011.7
20260510030540 25 63 14.5 20.9 0.00 0.00 0.00 81 1011.7
20260510025900 25 76 14.5 22.5 0.00 0.00 0.00 82 1011.4
20260510025221 25 73 12.9 20.9 0.00 0.00 0.00 83 1011.4
20260510024540 25 77 12.9 20.9 0.00 0.00 0.00 85 1011.0
20260510023900 25 70 9.7 19.3 0.00 0.00 0.00 85 1011.0
20260510023220 25 66 12.9 20.9 0.00 0.00 0.00 84 1011.0
20260510022540 25 68 12.9 20.9 0.00 0.00 0.00 81 1011.0
20260510021900 25 82 12.9 30.6 0.00 0.00 0.00 81 1010.7
20260510021220 25 107 25.7 30.6 0.00 0.00 0.00 75 1010.3
20260510020540 25 126 22.5 32.2 0.00 0.00 0.00 82 1010.0
20260510015900 25 132 25.7 32.2 0.00 0.00 0.00 82 1009.7
20260510015220 25 126 19.3 30.6 0.00 0.00 0.00 80 1009.7
20260510014540 25 127 24.1 30.6 0.00 0.00 0.00 80 1009.7
20260510013902 25 122 19.3 30.6 0.00 0.00 0.00 81 1009.7
20260510013220 25 125 24.1 30.6 0.00 0.00 0.00 81 1009.3
20260510012540 25 130 22.5 29.0 0.00 0.00 0.00 79 1009.3
20260510011900 26 126 22.5 29.0 0.00 0.00 0.00 76 1009.3
20260510011220 26 128 20.9 25.7 0.00 0.00 0.00 76 1009.3
20260510010540 26 127 20.9 24.1 0.00 0.00 0.00 75 1009.3
20260510005900 26 131 17.7 25.7 0.00 0.00 0.00 74 1009.3
20260510005220 26 127 19.3 32.2 0.00 0.00 0.00 73 1009.3
20260510004540 26 126 24.1 30.6 0.00 0.00 0.00 68 1009.3
20260510003900 26 123 24.1 30.6 0.00 0.00 0.00 69 1009.3
20260510003429 27 122 20.9 30.6 0.00 0.00 0.00 66 1009.3
20260510002540 27 122 25.7 33.8 0.00 0.00 0.00 63 1009.0
20260510001900 27 119 29.0 32.2 0.00 0.00 0.00 63 1009.3
20260510001220 27 122 22.5 29.0 0.00 0.00 0.00 62 1009.0
20260510000752 27 123 20.9 27.4 0.00 0.00 0.00 60 1009.0
20260509235901 27 121 20.9 29.0 0.00 0.00 0.00 65 1009.0
20260509235433 27 122 22.5 32.2 0.00 0.00 0.00 64 1009.0
20260509234540 27 122 24.1 32.2 0.00 0.00 0.00 67 1009.0
20260509234109 27 123 22.5 32.2 0.00 0.00 0.00 64 1009.3
20260509233220 27 120 24.1 33.8 0.00 0.00 0.00 60 1009.0
20260509232540 27 120 24.1 30.6 0.00 0.00 0.00 60 1009.3
20260509231901 27 119 24.1 29.0 0.00 0.00 0.00 60 1009.0
20260509231220 27 120 22.5 29.0 0.00 0.00 0.00 64 1009.0
20260509230540 27 122 24.1 29.0 0.00 0.00 0.00 74 1009.0
20260509225900 27 126 20.9 29.0 0.00 0.00 0.00 71 1009.0
20260509225220 28 119 17.7 24.1 0.00 0.00 0.00 62 1008.6
20260509224749 28 121 17.7 24.1 0.00 0.00 0.00 60 1009.0
20260509223900 28 119 19.3 24.1 0.00 0.00 0.00 57 1008.6
20260509223220 28 110 14.5 17.7 0.00 0.00 0.00 56 1008.6
20260509222540 28 111 12.9 17.7 0.00 0.00 0.00 55 1008.6
20260509222112 29 119 12.9 16.1 0.00 0.00 0.00 56 1008.6
20260509221220 29 115 11.3 16.1 0.00 0.00 0.00 60 1008.6
20260509220540 28 109 12.9 17.7 0.00 0.00 0.00 58 1008.6
20260509220114 28 110 12.9 17.7 0.00 0.00 0.00 61 1008.6
20260509215429 27 103 16.1 20.9 0.00 0.00 0.00 71 1008.6
20260509214750 27 99 19.3 20.9 0.00 0.00 0.00 69 1008.6
20260509213900 28 101 16.1 19.3 0.00 0.00 0.00 68 1008.6
20260509213220 28 97 16.1 19.3 0.00 0.00 0.00 66 1008.6
20260509212541 28 105 14.5 19.3 0.00 0.00 0.00 68 1008.6
20260509211900 28 100 14.5 19.3 0.00 0.00 0.00 67 1008.6
20260509211222 28 95 16.1 20.9 0.00 0.00 0.00 69 1008.6
20260509210540 28 96 14.5 17.7 0.00 0.00 0.00 69 1008.6
20260509205900 28 71 11.3 17.7 0.00 0.00 0.00 70 1008.6
20260509205220 28 91 12.9 20.9 0.00 0.00 0.00 68 1008.3
20260509204750 28 97 17.7 20.9 0.00 0.00 0.00 69 1008.3
20260509204111 28 91 12.9 17.7 0.00 0.00 0.00 67 1008.3
20260509203220 28 79 9.7 14.5 0.00 0.00 0.00 68 1008.6
20260509202540 28 72 9.7 16.1 0.00 0.00 0.00 67 1008.3
20260509201900 28 77 11.3 16.1 0.00 0.00 0.00 69 1008.6
20260509201220 28 83 11.3 16.1 0.00 0.00 0.00 66 1008.6
20260509200540 28 64 9.7 16.1 0.00 0.00 0.00 66 1008.6
20260509195900 28 68 11.3 17.7 0.00 0.00 0.00 67 1009.0
20260509195220 28 99 14.5 19.3 0.00 0.00 0.00 70 1009.0
20260509194540 29 82 9.7 17.7 0.00 0.00 0.00 65 1009.0
20260509193901 28 70 9.7 16.1 0.00 0.00 0.00 66 1009.3
20260509193432 29 74 8.0 17.7 0.00 0.00 0.00 63 1009.3
20260509192540 30 72 6.4 17.7 0.00 0.00 0.00 64 1009.3
20260509191900 30 18 1.6 6.4 0.00 0.00 0.00 55 1009.7
20260509191220 29 6 3.2 9.7 0.00 0.00 0.00 57 1009.7